Time,TemperatureF,DewpointF,PressureIn,WindDirection,WindDirectionDegrees,WindSpeedMPH,WindSpeedGustMPH,Humidity,HourlyPrecipIn,Conditions,Clouds,dailyrainin,SoftwareType,DateUTC
2013-04-29 00:00:00,60.2,49.6,29.67,East,84,1.0,21.0,68,0.00,,,0.00,Wunderground v.1.15,2013-04-29 05:00:00,
2013-04-29 00:02:00,60.1,49.5,29.67,ESE,114,1.0,21.0,68,0.00,,,0.00,Wunderground v.1.15,2013-04-29 05:02:00,
2013-04-29 00:04:00,60.0,49.8,29.68,ESE,113,0.0,21.0,69,0.00,,,0.00,Wunderground v.1.15,2013-04-29 05:04:00,
2013-04-29 00:08:00,59.7,49.5,29.68,North,358,1.0,21.0,69,0.00,,,0.00,Wunderground v.1.15,2013-04-29 05:08:00,
2013-04-29 00:10:00,59.6,49.4,29.68,NNE,27,1.0,3.0,69,0.00,,,0.00,Wunderground v.1.15,2013-04-29 05:10:00,
2013-04-29 00:14:00,59.6,49.4,29.69,NE,38,2.0,3.0,69,0.00,,,0.00,Wunderground v.1.15,2013-04-29 05:14:00,
2013-04-29 00:16:00,59.5,49.3,29.69,NNE,26,2.0,3.0,69,0.00,,,0.00,Wunderground v.1.15,2013-04-29 05:16:00,
2013-04-29 00:18:00,59.4,50.0,29.68,NE,49,2.0,3.0,71,0.00,,,0.00,Wunderground v.1.15,2013-04-29 05:18:00,
2013-04-29 00:20:00,59.3,49.1,29.68,NE,53,2.0,4.0,69,0.00,,,0.00,Wunderground v.1.15,2013-04-29 05:20:00,
2013-04-29 00:22:00,59.3,49.5,29.68,NE,35,3.0,7.0,70,0.00,,,0.00,Wunderground v.1.15,2013-04-29 05:22:00,
2013-04-29 00:24:00,59.1,50.5,29.68,NNE,25,4.0,7.0,73,0.00,,,0.00,Wunderground v.1.15,2013-04-29 05:24:00,
2013-04-29 00:28:00,59.0,49.6,29.68,NE,35,6.0,9.0,71,0.00,,,0.00,Wunderground v.1.15,2013-04-29 05:28:00,
2013-04-29 00:30:00,58.8,49.8,29.68,NE,34,8.0,8.0,72,0.00,,,0.00,Wunderground v.1.15,2013-04-29 05:30:00,
2013-04-29 00:32:00,58.5,49.9,29.69,NNE,27,8.0,8.0,73,0.00,,,0.00,Wunderground v.1.15,2013-04-29 05:32:00,
2013-04-29 00:34:00,58.3,50.0,29.69,North,357,7.0,8.0,74,0.00,,,0.00,Wunderground v.1.15,2013-04-29 05:34:00,
2013-04-29 00:38:00,58.0,50.5,29.71,NNW,327,7.0,10.0,76,0.00,,,0.00,Wunderground v.1.15,2013-04-29 05:38:00,
2013-04-29 00:40:00,57.7,50.2,29.73,WNW,298,7.0,9.0,76,0.00,,,0.00,Wunderground v.1.15,2013-04-29 05:40:00,
2013-04-29 00:44:00,57.3,50.1,29.73,NW,304,8.0,9.0,77,0.00,,,0.00,Wunderground v.1.15,2013-04-29 05:44:00,
2013-04-29 00:46:00,57.3,50.5,29.73,North,350,7.0,10.0,78,0.00,,,0.00,Wunderground v.1.15,2013-04-29 05:46:00,
2013-04-29 00:48:00,57.1,50.6,29.71,NNE,33,8.0,10.0,79,0.61,,,0.02,Wunderground v.1.15,2013-04-29 05:48:00,
2013-04-29 00:50:00,56.8,50.7,29.69,NE,44,9.0,12.0,80,0.47,,,0.03,Wunderground v.1.15,2013-04-29 05:50:00,
2013-04-29 00:54:00,56.0,50.6,29.68,ENE,61,9.0,12.0,82,0.19,,,0.04,Wunderground v.1.15,2013-04-29 05:54:00,
2013-04-29 00:58:00,55.5,50.7,29.68,NE,44,10.0,12.0,84,0.08,,,0.04,Wunderground v.1.15,2013-04-29 05:58:00,
2013-04-29 01:00:00,55.4,50.6,29.68,East,96,9.0,9.0,84,0.07,,,0.04,Wunderground v.1.15,2013-04-29 06:00:00,
2013-04-29 01:02:00,55.4,50.6,29.69,North,8,8.0,9.0,84,0.05,,,0.04,Wunderground v.1.15,2013-04-29 06:02:00,
2013-04-29 01:04:00,55.5,50.7,29.69,NE,37,8.0,10.0,84,0.05,,,0.04,Wunderground v.1.15,2013-04-29 06:04:00,
2013-04-29 01:08:00,56.0,50.3,29.69,ENE,60,7.0,10.0,81,0.00,,,0.04,Wunderground v.1.15,2013-04-29 06:08:00,
2013-04-29 01:10:00,56.4,50.3,29.68,SSE,149,6.0,6.0,80,0.00,,,0.04,Wunderground v.1.15,2013-04-29 06:10:00,
2013-04-29 01:12:00,56.6,50.5,29.68,West,260,5.0,9.0,80,0.00,,,0.05,Wunderground v.1.15,2013-04-29 06:12:00,
2013-04-29 01:18:00,56.5,50.4,29.67,ESE,105,3.0,9.0,80,0.32,,,0.07,Wunderground v.1.15,2013-04-29 06:18:00,
2013-04-29 01:22:00,56.6,50.8,29.69,NNE,16,3.0,9.0,81,0.14,,,0.07,Wunderground v.1.15,2013-04-29 06:22:00,
2013-04-29 01:24:00,56.4,51.3,29.69,NNE,26,4.0,9.0,83,0.12,,,0.08,Wunderground v.1.15,2013-04-29 06:24:00,
2013-04-29 01:28:00,56.0,51.2,29.69,NE,43,7.0,9.0,84,0.11,,,0.08,Wunderground v.1.15,2013-04-29 06:28:00,
2013-04-29 01:30:00,55.9,50.8,29.69,NE,51,7.0,9.0,83,0.08,,,0.08,Wunderground v.1.15,2013-04-29 06:30:00,
2013-04-29 01:32:00,55.8,50.7,29.68,ENE,57,7.0,9.0,83,0.06,,,0.08,Wunderground v.1.15,2013-04-29 06:32:00,
2013-04-29 01:36:00,55.9,50.5,29.68,ESE,121,6.0,9.0,82,0.04,,,0.08,Wunderground v.1.15,2013-04-29 06:36:00,
2013-04-29 01:40:00,56.0,50.6,29.68,ENE,57,5.0,9.0,82,0.00,,,0.08,Wunderground v.1.15,2013-04-29 06:40:00,
2013-04-29 01:44:00,55.9,50.5,29.67,North,4,5.0,9.0,82,0.00,,,0.08,Wunderground v.1.15,2013-04-29 06:44:00,
2013-04-29 01:46:00,56.0,50.6,29.67,ENE,70,5.0,9.0,82,0.00,,,0.08,Wunderground v.1.15,2013-04-29 06:46:00,
2013-04-29 01:50:00,56.0,50.6,29.68,ENE,63,5.0,5.0,82,0.00,,,0.08,Wunderground v.1.15,2013-04-29 06:50:00,
2013-04-29 01:52:00,56.0,50.9,29.68,SSE,160,4.0,9.0,83,0.00,,,0.08,Wunderground v.1.15,2013-04-29 06:52:00,
2013-04-29 01:54:00,55.8,50.7,29.67,SW,236,3.0,9.0,83,0.00,,,0.08,Wunderground v.1.15,2013-04-29 06:54:00,
2013-04-29 01:56:00,55.7,50.6,29.67,East,89,2.0,9.0,83,0.00,,,0.08,Wunderground v.1.15,2013-04-29 06:56:00,
2013-04-29 02:02:00,55.4,50.6,29.68,North,358,3.0,9.0,84,0.00,,,0.08,Wunderground v.1.15,2013-04-29 07:02:00,
2013-04-29 02:04:00,55.2,50.8,29.68,NNE,23,4.0,9.0,85,0.00,,,0.08,Wunderground v.1.15,2013-04-29 07:04:00,
2013-04-29 02:06:00,55.0,50.9,29.69,NNW,335,5.0,9.0,86,0.00,,,0.08,Wunderground v.1.15,2013-04-29 07:06:00,
2013-04-29 02:10:00,54.8,51.0,29.68,NNE,18,8.0,9.0,87,0.00,,,0.08,Wunderground v.1.15,2013-04-29 07:10:00,
2013-04-29 02:14:00,54.9,50.5,29.68,NNE,23,8.0,9.0,85,0.00,,,0.08,Wunderground v.1.15,2013-04-29 07:14:00,
2013-04-29 02:16:00,55.2,50.8,29.68,NE,34,8.0,9.0,85,0.00,,,0.08,Wunderground v.1.15,2013-04-29 07:16:00,
2013-04-29 02:18:00,55.3,50.9,29.68,NNE,32,7.0,9.0,85,0.00,,,0.08,Wunderground v.1.15,2013-04-29 07:18:00,
2013-04-29 02:20:00,55.2,50.8,29.68,NE,46,6.0,9.0,85,0.00,,,0.08,Wunderground v.1.15,2013-04-29 07:20:00,
2013-04-29 02:22:00,55.1,50.7,29.68,NE,43,6.0,9.0,85,0.00,,,0.08,Wunderground v.1.15,2013-04-29 07:22:00,
2013-04-29 02:26:00,54.9,50.8,29.68,NNE,26,7.0,9.0,86,0.00,,,0.08,Wunderground v.1.15,2013-04-29 07:26:00,
2013-04-29 02:30:00,54.5,50.7,29.68,NNE,28,7.0,9.0,87,0.00,,,0.08,Wunderground v.1.15,2013-04-29 07:30:00,
2013-04-29 02:32:00,54.3,50.8,29.68,NE,35,7.0,9.0,88,0.00,,,0.08,Wunderground v.1.15,2013-04-29 07:32:00,
2013-04-29 02:36:00,54.0,50.8,29.68,NE,34,8.0,9.0,89,0.00,,,0.08,Wunderground v.1.15,2013-04-29 07:36:00,
2013-04-29 02:38:00,53.8,50.6,29.68,NNE,29,8.0,9.0,89,0.00,,,0.08,Wunderground v.1.15,2013-04-29 07:38:00,
2013-04-29 02:40:00,53.7,50.8,29.67,NNE,26,8.0,9.0,90,0.00,,,0.08,Wunderground v.1.15,2013-04-29 07:40:00,
2013-04-29 02:42:00,53.7,50.8,29.68,NNE,15,8.0,9.0,90,0.00,,,0.08,Wunderground v.1.15,2013-04-29 07:42:00,
2013-04-29 02:44:00,53.7,50.8,29.67,NNE,32,8.0,9.0,90,0.00,,,0.08,Wunderground v.1.15,2013-04-29 07:44:00,
2013-04-29 02:50:00,53.6,51.0,29.67,NNE,29,8.0,9.0,91,0.00,,,0.08,Wunderground v.1.15,2013-04-29 07:50:00,
2013-04-29 02:54:00,53.6,51.0,29.67,NE,40,7.0,9.0,91,0.00,,,0.08,Wunderground v.1.15,2013-04-29 07:54:00,
2013-04-29 02:56:00,53.6,51.0,29.67,NNE,22,7.0,9.0,91,0.00,,,0.08,Wunderground v.1.15,2013-04-29 07:56:00,
2013-04-29 03:02:00,53.5,51.2,29.67,NE,43,7.0,9.0,92,0.00,,,0.08,Wunderground v.1.15,2013-04-29 08:02:00,
2013-04-29 03:04:00,53.6,51.3,29.67,NNE,20,7.0,9.0,92,0.00,,,0.08,Wunderground v.1.15,2013-04-29 08:04:00,
2013-04-29 03:10:00,53.6,51.0,29.67,NNE,32,6.0,6.0,91,0.00,,,0.08,Wunderground v.1.15,2013-04-29 08:10:00,
2013-04-29 03:16:00,53.4,50.8,29.68,NE,39,5.0,9.0,91,0.00,,,0.08,Wunderground v.1.15,2013-04-29 08:16:00,
2013-04-29 03:18:00,53.4,50.8,29.68,NE,37,5.0,9.0,91,0.00,,,0.08,Wunderground v.1.15,2013-04-29 08:18:00,
2013-04-29 03:22:00,53.4,50.8,29.68,NE,44,5.0,9.0,91,0.00,,,0.08,Wunderground v.1.15,2013-04-29 08:22:00,
2013-04-29 03:24:00,53.4,50.8,29.68,NE,55,6.0,9.0,91,0.00,,,0.08,Wunderground v.1.15,2013-04-29 08:24:00,
2013-04-29 03:26:00,53.4,50.8,29.68,NNE,30,6.0,9.0,91,0.00,,,0.08,Wunderground v.1.15,2013-04-29 08:26:00,
2013-04-29 03:28:00,53.3,50.7,29.68,NNE,26,6.0,9.0,91,0.00,,,0.08,Wunderground v.1.15,2013-04-29 08:28:00,
2013-04-29 03:30:00,53.2,50.6,29.68,NNE,28,6.0,6.0,91,0.00,,,0.08,Wunderground v.1.15,2013-04-29 08:30:00,
2013-04-29 03:32:00,53.2,50.6,29.68,NNE,25,5.0,9.0,91,0.00,,,0.08,Wunderground v.1.15,2013-04-29 08:32:00,
2013-04-29 03:34:00,53.1,50.5,29.68,NE,35,5.0,9.0,91,0.00,,,0.08,Wunderground v.1.15,2013-04-29 08:34:00,
2013-04-29 03:36:00,53.0,50.7,29.69,NNE,21,5.0,9.0,92,0.00,,,0.08,Wunderground v.1.15,2013-04-29 08:36:00,
2013-04-29 03:38:00,53.0,50.7,29.69,NNE,26,5.0,9.0,92,0.00,,,0.08,Wunderground v.1.15,2013-04-29 08:38:00,
2013-04-29 03:42:00,53.0,50.7,29.69,NNE,18,7.0,9.0,92,0.00,,,0.08,Wunderground v.1.15,2013-04-29 08:42:00,
2013-04-29 03:46:00,52.9,50.9,29.69,North,4,8.0,9.0,93,0.00,,,0.08,Wunderground v.1.15,2013-04-29 08:46:00,
2013-04-29 03:48:00,52.8,50.5,29.69,NNE,22,9.0,9.0,92,0.00,,,0.08,Wunderground v.1.15,2013-04-29 08:48:00,
2013-04-29 03:52:00,52.5,50.2,29.69,NNE,28,9.0,9.0,92,0.00,,,0.08,Wunderground v.1.15,2013-04-29 08:52:00,
2013-04-29 03:56:00,52.4,50.1,29.69,NNE,26,9.0,10.0,92,0.00,,,0.08,Wunderground v.1.15,2013-04-29 08:56:00,
2013-04-29 03:58:00,52.3,50.0,29.69,NNE,20,9.0,10.0,92,0.00,,,0.08,Wunderground v.1.15,2013-04-29 08:58:00,
2013-04-29 04:02:00,52.1,49.8,29.69,NNE,25,9.0,10.0,92,0.00,,,0.08,Wunderground v.1.15,2013-04-29 09:02:00,
2013-04-29 04:04:00,52.0,49.7,29.69,NNE,21,9.0,11.0,92,0.00,,,0.08,Wunderground v.1.15,2013-04-29 09:04:00,
2013-04-29 04:06:00,52.0,49.5,29.69,NNE,13,9.0,11.0,91,0.00,,,0.08,Wunderground v.1.15,2013-04-29 09:06:00,
2013-04-29 04:10:00,51.8,49.5,29.69,NE,37,10.0,10.0,92,0.00,,,0.08,Wunderground v.1.15,2013-04-29 09:10:00,
2013-04-29 04:14:00,51.6,49.4,29.70,NNE,26,9.0,10.0,92,0.00,,,0.08,Wunderground v.1.15,2013-04-29 09:14:00,
2013-04-29 04:16:00,51.4,49.2,29.70,North,6,9.0,10.0,92,0.00,,,0.08,Wunderground v.1.15,2013-04-29 09:16:00,
2013-04-29 04:18:00,51.3,49.1,29.70,NNE,18,9.0,10.0,92,0.00,,,0.08,Wunderground v.1.15,2013-04-29 09:18:00,
2013-04-29 04:20:00,51.2,49.0,29.70,NNE,15,8.0,9.0,92,0.00,,,0.08,Wunderground v.1.15,2013-04-29 09:20:00,
2013-04-29 04:24:00,50.9,48.7,29.70,NNE,20,8.0,9.0,92,0.00,,,0.08,Wunderground v.1.15,2013-04-29 09:24:00,
2013-04-29 04:26:00,50.8,48.6,29.70,North,8,8.0,9.0,92,0.00,,,0.08,Wunderground v.1.15,2013-04-29 09:26:00,
2013-04-29 04:30:00,50.5,48.3,29.70,North,6,8.0,9.0,92,0.00,,,0.08,Wunderground v.1.15,2013-04-29 09:30:00,
2013-04-29 04:32:00,50.4,48.2,29.70,North,10,8.0,10.0,92,0.00,,,0.08,Wunderground v.1.15,2013-04-29 09:32:00,
2013-04-29 04:34:00,50.2,48.0,29.70,NNE,14,8.0,10.0,92,0.00,,,0.08,Wunderground v.1.15,2013-04-29 09:34:00,
2013-04-29 04:36:00,50.1,47.9,29.70,North,356,8.0,10.0,92,0.00,,,0.08,Wunderground v.1.15,2013-04-29 09:36:00,
2013-04-29 04:42:00,49.8,47.9,29.70,NNE,33,8.0,9.0,93,0.00,,,0.08,Wunderground v.1.15,2013-04-29 09:42:00,
2013-04-29 04:46:00,49.7,47.8,29.70,NNE,13,7.0,9.0,93,0.00,,,0.08,Wunderground v.1.15,2013-04-29 09:46:00,
2013-04-29 04:48:00,49.6,47.7,29.70,North,8,7.0,9.0,93,0.00,,,0.08,Wunderground v.1.15,2013-04-29 09:48:00,
2013-04-29 04:50:00,49.5,47.6,29.70,NNE,20,8.0,9.0,93,0.00,,,0.08,Wunderground v.1.15,2013-04-29 09:50:00,
2013-04-29 04:52:00,49.5,47.6,29.70,NNE,15,8.0,9.0,93,0.00,,,0.08,Wunderground v.1.15,2013-04-29 09:52:00,
2013-04-29 04:56:00,49.3,47.4,29.70,North,11,8.0,9.0,93,0.00,,,0.08,Wunderground v.1.15,2013-04-29 09:56:00,
2013-04-29 04:58:00,49.2,47.3,29.70,NNW,346,8.0,9.0,93,0.00,,,0.08,Wunderground v.1.15,2013-04-29 09:58:00,
2013-04-29 05:00:00,49.1,47.2,29.70,North,11,8.0,8.0,93,0.00,,,0.08,Wunderground v.1.15,2013-04-29 10:00:00,
2013-04-29 05:02:00,49.0,47.1,29.70,NNE,20,7.0,9.0,93,0.00,,,0.08,Wunderground v.1.15,2013-04-29 10:02:00,
2013-04-29 05:04:00,48.9,47.2,29.70,North,9,7.0,9.0,94,0.00,,,0.08,Wunderground v.1.15,2013-04-29 10:04:00,
2013-04-29 05:06:00,48.8,47.2,29.70,North,10,7.0,9.0,94,0.00,,,0.08,Wunderground v.1.15,2013-04-29 10:06:00,
2013-04-29 05:10:00,48.7,47.1,29.70,NNW,344,7.0,7.0,94,0.00,,,0.08,Wunderground v.1.15,2013-04-29 10:10:00,
2013-04-29 05:12:00,48.6,47.0,29.70,North,10,7.0,8.0,94,0.00,,,0.08,Wunderground v.1.15,2013-04-29 10:12:00,
2013-04-29 05:18:00,48.3,46.7,29.70,North,8,7.0,9.0,94,0.00,,,0.08,Wunderground v.1.15,2013-04-29 10:18:00,
2013-04-29 05:20:00,48.2,46.6,29.70,North,1,7.0,9.0,94,0.00,,,0.08,Wunderground v.1.15,2013-04-29 10:20:00,
2013-04-29 05:22:00,48.1,46.5,29.70,NNE,18,7.0,9.0,94,0.00,,,0.08,Wunderground v.1.15,2013-04-29 10:22:00,
2013-04-29 05:28:00,47.9,46.5,29.70,NNE,20,7.0,9.0,95,0.00,,,0.08,Wunderground v.1.15,2013-04-29 10:28:00,
2013-04-29 05:30:00,47.9,46.5,29.70,NNE,20,7.0,7.0,95,0.00,,,0.08,Wunderground v.1.15,2013-04-29 10:30:00,
2013-04-29 05:32:00,47.9,46.3,29.70,North,11,7.0,9.0,94,0.00,,,0.08,Wunderground v.1.15,2013-04-29 10:32:00,
2013-04-29 05:36:00,47.8,46.2,29.70,NNE,25,7.0,10.0,94,0.00,,,0.08,Wunderground v.1.15,2013-04-29 10:36:00,
2013-04-29 05:38:00,47.8,46.2,29.70,NNE,25,8.0,10.0,94,0.00,,,0.08,Wunderground v.1.15,2013-04-29 10:38:00,
2013-04-29 05:40:00,47.7,46.1,29.70,NE,43,8.0,9.0,94,0.00,,,0.08,Wunderground v.1.15,2013-04-29 10:40:00,
2013-04-29 05:44:00,47.7,45.8,29.70,NE,39,8.0,10.0,93,0.00,,,0.08,Wunderground v.1.15,2013-04-29 10:44:00,
2013-04-29 05:46:00,47.7,45.8,29.69,NNE,20,8.0,10.0,93,0.00,,,0.08,Wunderground v.1.15,2013-04-29 10:46:00,
2013-04-29 05:50:00,47.6,45.7,29.69,NNE,21,9.0,10.0,93,0.00,,,0.08,Wunderground v.1.15,2013-04-29 10:50:00,
2013-04-29 05:52:00,47.6,45.7,29.70,NNE,18,9.0,10.0,93,0.00,,,0.08,Wunderground v.1.15,2013-04-29 10:52:00,
2013-04-29 05:56:00,47.5,45.6,29.70,NNE,18,9.0,10.0,93,0.00,,,0.08,Wunderground v.1.15,2013-04-29 10:56:00,
2013-04-29 05:58:00,47.4,45.2,29.70,NNE,18,9.0,10.0,92,0.00,,,0.08,Wunderground v.1.15,2013-04-29 10:58:00,
2013-04-29 06:00:00,47.3,45.1,29.70,North,5,9.0,9.0,92,0.00,,,0.08,Wunderground v.1.15,2013-04-29 11:00:00,
2013-04-29 06:04:00,47.2,45.0,29.70,NNE,18,8.0,9.0,92,0.00,,,0.08,Wunderground v.1.15,2013-04-29 11:04:00,
2013-04-29 06:06:00,47.1,45.2,29.70,NNE,16,8.0,9.0,93,0.00,,,0.08,Wunderground v.1.15,2013-04-29 11:06:00,
2013-04-29 06:08:00,47.0,44.8,29.70,North,5,8.0,10.0,92,0.00,,,0.08,Wunderground v.1.15,2013-04-29 11:08:00,
2013-04-29 06:12:00,46.8,44.6,29.70,NNE,14,8.0,9.0,92,0.00,,,0.08,Wunderground v.1.15,2013-04-29 11:12:00,
2013-04-29 06:14:00,46.7,44.5,29.70,North,10,8.0,9.0,92,0.00,,,0.08,Wunderground v.1.15,2013-04-29 11:14:00,
2013-04-29 06:16:00,46.7,44.5,29.70,North,8,8.0,9.0,92,0.00,,,0.08,Wunderground v.1.15,2013-04-29 11:16:00,
2013-04-29 06:18:00,46.6,44.4,29.70,North,358,8.0,9.0,92,0.00,,,0.08,Wunderground v.1.15,2013-04-29 11:18:00,
2013-04-29 06:20:00,46.5,44.3,29.71,North,6,7.0,11.0,92,0.00,,,0.08,Wunderground v.1.15,2013-04-29 11:20:00,
2013-04-29 06:22:00,46.5,44.3,29.71,NNE,25,8.0,11.0,92,0.00,,,0.08,Wunderground v.1.15,2013-04-29 11:22:00,
2013-04-29 06:24:00,46.5,44.3,29.71,North,9,8.0,11.0,92,0.00,,,0.08,Wunderground v.1.15,2013-04-29 11:24:00,
2013-04-29 06:26:00,46.4,43.9,29.70,NNE,18,8.0,11.0,91,0.00,,,0.08,Wunderground v.1.15,2013-04-29 11:26:00,
2013-04-29 06:30:00,46.4,44.2,29.71,North,4,9.0,9.0,92,0.00,,,0.08,Wunderground v.1.15,2013-04-29 11:30:00,
2013-04-29 06:34:00,46.4,43.9,29.71,NNE,25,8.0,9.0,91,0.00,,,0.08,Wunderground v.1.15,2013-04-29 11:34:00,
2013-04-29 06:38:00,46.3,43.8,29.71,NNW,339,8.0,9.0,91,0.00,,,0.08,Wunderground v.1.15,2013-04-29 11:38:00,
2013-04-29 06:40:00,46.3,43.8,29.71,North,10,7.0,9.0,91,0.00,,,0.08,Wunderground v.1.15,2013-04-29 11:40:00,
2013-04-29 06:44:00,46.2,44.0,29.71,North,9,7.0,9.0,92,0.00,,,0.08,Wunderground v.1.15,2013-04-29 11:44:00,
2013-04-29 06:46:00,46.2,43.7,29.71,NNE,29,7.0,9.0,91,0.00,,,0.08,Wunderground v.1.15,2013-04-29 11:46:00,
2013-04-29 06:48:00,46.1,43.6,29.71,North,8,7.0,9.0,91,0.00,,,0.08,Wunderground v.1.15,2013-04-29 11:48:00,
2013-04-29 06:50:00,46.1,43.6,29.71,NNE,13,7.0,7.0,91,0.00,,,0.08,Wunderground v.1.15,2013-04-29 11:50:00,
2013-04-29 06:52:00,46.2,43.7,29.71,NNE,22,6.0,9.0,91,0.00,,,0.08,Wunderground v.1.15,2013-04-29 11:52:00,
2013-04-29 06:58:00,46.2,43.7,29.71,North,4,6.0,9.0,91,0.00,,,0.08,Wunderground v.1.15,2013-04-29 11:58:00,
2013-04-29 07:00:00,46.2,43.7,29.71,NNE,15,7.0,9.0,91,0.00,,,0.08,Wunderground v.1.15,2013-04-29 12:00:00,
2013-04-29 07:04:00,46.1,43.3,29.71,NE,41,8.0,9.0,90,0.00,,,0.08,Wunderground v.1.15,2013-04-29 12:04:00,
2013-04-29 07:06:00,46.1,43.3,29.71,North,10,8.0,9.0,90,0.00,,,0.08,Wunderground v.1.15,2013-04-29 12:06:00,
2013-04-29 07:10:00,46.1,43.3,29.72,North,1,8.0,8.0,90,0.00,,,0.08,Wunderground v.1.15,2013-04-29 12:10:00,
2013-04-29 07:12:00,46.1,43.3,29.72,NNE,13,8.0,9.0,90,0.00,,,0.08,Wunderground v.1.15,2013-04-29 12:12:00,
2013-04-29 07:14:00,46.1,43.3,29.72,North,352,8.0,9.0,90,0.00,,,0.08,Wunderground v.1.15,2013-04-29 12:14:00,
2013-04-29 07:18:00,45.9,43.4,29.72,NNE,23,7.0,9.0,91,0.00,,,0.08,Wunderground v.1.15,2013-04-29 12:18:00,
2013-04-29 07:20:00,45.9,43.1,29.71,NNE,13,7.0,11.0,90,0.00,,,0.08,Wunderground v.1.15,2013-04-29 12:20:00,
2013-04-29 07:22:00,45.8,43.0,29.72,NNE,15,7.0,11.0,90,0.00,,,0.08,Wunderground v.1.15,2013-04-29 12:22:00,
2013-04-29 07:26:00,45.8,43.0,29.72,NNE,19,8.0,11.0,90,0.00,,,0.08,Wunderground v.1.15,2013-04-29 12:26:00,
2013-04-29 07:28:00,45.7,42.9,29.72,NNE,16,8.0,11.0,90,0.00,,,0.08,Wunderground v.1.15,2013-04-29 12:28:00,
2013-04-29 07:30:00,45.8,43.0,29.72,NNE,15,8.0,9.0,90,0.00,,,0.08,Wunderground v.1.15,2013-04-29 12:30:00,
2013-04-29 07:32:00,45.8,43.0,29.72,North,11,8.0,10.0,90,0.00,,,0.08,Wunderground v.1.15,2013-04-29 12:32:00,
2013-04-29 07:36:00,45.8,43.0,29.71,NNE,27,8.0,10.0,90,0.00,,,0.08,Wunderground v.1.15,2013-04-29 12:36:00,
2013-04-29 07:38:00,45.9,43.1,29.71,North,11,8.0,11.0,90,0.00,,,0.08,Wunderground v.1.15,2013-04-29 12:38:00,
2013-04-29 07:40:00,45.9,42.8,29.71,NNE,28,9.0,9.0,89,0.00,,,0.08,Wunderground v.1.15,2013-04-29 12:40:00,
2013-04-29 07:42:00,45.8,42.7,29.71,NNE,25,9.0,9.0,89,0.00,,,0.08,Wunderground v.1.15,2013-04-29 12:42:00,
2013-04-29 07:44:00,45.8,42.7,29.71,NNE,32,9.0,9.0,89,0.00,,,0.08,Wunderground v.1.15,2013-04-29 12:44:00,
2013-04-29 07:48:00,45.8,42.7,29.71,NNE,23,9.0,9.0,89,0.00,,,0.08,Wunderground v.1.15,2013-04-29 12:48:00,
2013-04-29 07:50:00,45.8,43.0,29.71,NNE,22,8.0,9.0,90,0.00,,,0.08,Wunderground v.1.15,2013-04-29 12:50:00,
2013-04-29 07:52:00,45.9,43.1,29.71,NNE,13,8.0,9.0,90,0.00,,,0.08,Wunderground v.1.15,2013-04-29 12:52:00,
2013-04-29 07:54:00,45.9,43.1,29.70,NE,34,8.0,9.0,90,0.00,,,0.08,Wunderground v.1.15,2013-04-29 12:54:00,
2013-04-29 07:56:00,46.0,43.2,29.70,NNE,22,8.0,9.0,90,0.00,,,0.08,Wunderground v.1.15,2013-04-29 12:56:00,
2013-04-29 07:58:00,46.0,43.2,29.71,NNE,32,8.0,11.0,90,0.00,,,0.08,Wunderground v.1.15,2013-04-29 12:58:00,
2013-04-29 08:02:00,46.3,43.5,29.71,NNE,20,9.0,11.0,90,0.00,,,0.08,Wunderground v.1.15,2013-04-29 13:02:00,
2013-04-29 08:04:00,46.4,43.9,29.71,NNE,26,9.0,11.0,91,0.00,,,0.08,Wunderground v.1.15,2013-04-29 13:04:00,
2013-04-29 08:06:00,46.6,44.1,29.71,NNE,25,9.0,11.0,91,0.00,,,0.08,Wunderground v.1.15,2013-04-29 13:06:00,
2013-04-29 08:08:00,46.7,43.9,29.71,NNE,26,9.0,11.0,90,0.00,,,0.08,Wunderground v.1.15,2013-04-29 13:08:00,
2013-04-29 08:10:00,46.7,43.9,29.71,NE,37,9.0,9.0,90,0.00,,,0.08,Wunderground v.1.15,2013-04-29 13:10:00,
2013-04-29 08:14:00,46.9,44.1,29.71,NNE,28,9.0,9.0,90,0.00,,,0.08,Wunderground v.1.15,2013-04-29 13:14:00,
2013-04-29 08:16:00,47.0,44.2,29.72,NNE,27,9.0,12.0,90,0.00,,,0.08,Wunderground v.1.15,2013-04-29 13:16:00,
2013-04-29 08:18:00,47.0,43.6,29.72,NNE,27,10.0,12.0,88,0.00,,,0.08,Wunderground v.1.15,2013-04-29 13:18:00,
2013-04-29 08:20:00,47.1,44.0,29.72,NNE,23,10.0,10.0,89,0.00,,,0.08,Wunderground v.1.15,2013-04-29 13:20:00,
2013-04-29 08:24:00,47.3,44.2,29.71,NNE,20,10.0,10.0,89,0.00,,,0.08,Wunderground v.1.15,2013-04-29 13:24:00,
2013-04-29 08:26:00,47.3,44.2,29.71,NNE,33,9.0,10.0,89,0.00,,,0.08,Wunderground v.1.15,2013-04-29 13:26:00,
2013-04-29 08:28:00,47.3,43.9,29.71,NE,36,9.0,11.0,88,0.00,,,0.08,Wunderground v.1.15,2013-04-29 13:28:00,
2013-04-29 08:30:00,47.3,43.9,29.71,NE,38,8.0,8.0,88,0.00,,,0.08,Wunderground v.1.15,2013-04-29 13:30:00,
2013-04-29 08:34:00,47.6,45.1,29.71,NNE,25,8.0,9.0,91,0.00,,,0.08,Wunderground v.1.15,2013-04-29 13:34:00,
2013-04-29 08:36:00,48.0,45.5,29.71,NNE,26,8.0,10.0,91,0.00,,,0.08,Wunderground v.1.15,2013-04-29 13:36:00,
2013-04-29 08:38:00,48.1,44.7,29.71,NE,40,9.0,10.0,88,0.00,,,0.08,Wunderground v.1.15,2013-04-29 13:38:00,
2013-04-29 08:42:00,48.2,44.5,29.71,NE,39,9.0,9.0,87,0.00,,,0.08,Wunderground v.1.15,2013-04-29 13:42:00,
2013-04-29 08:44:00,48.4,44.7,29.71,NE,34,9.0,10.0,87,0.00,,,0.08,Wunderground v.1.15,2013-04-29 13:44:00,
2013-04-29 08:46:00,48.5,44.8,29.70,North,8,9.0,10.0,87,0.00,,,0.08,Wunderground v.1.15,2013-04-29 13:46:00,
2013-04-29 08:50:00,49.1,45.1,29.70,NNE,25,9.0,9.0,86,0.00,,,0.08,Wunderground v.1.15,2013-04-29 13:50:00,
2013-04-29 08:52:00,49.3,45.6,29.71,NE,34,9.0,10.0,87,0.00,,,0.08,Wunderground v.1.15,2013-04-29 13:52:00,
2013-04-29 08:54:00,49.5,46.1,29.70,NE,51,8.0,10.0,88,0.00,,,0.08,Wunderground v.1.15,2013-04-29 13:54:00,
2013-04-29 08:56:00,49.8,46.7,29.70,NNE,33,8.0,10.0,89,0.00,,,0.08,Wunderground v.1.15,2013-04-29 13:56:00,
2013-04-29 09:00:00,50.0,46.0,29.70,NE,41,7.0,7.0,86,0.00,,,0.08,Wunderground v.1.15,2013-04-29 14:00:00,
2013-04-29 09:02:00,50.1,46.1,29.70,ENE,67,7.0,9.0,86,0.00,,,0.08,Wunderground v.1.15,2013-04-29 14:02:00,
2013-04-29 09:08:00,50.8,46.8,29.70,NE,53,7.0,10.0,86,0.00,,,0.08,Wunderground v.1.15,2013-04-29 14:08:00,
2013-04-29 09:12:00,50.8,45.8,29.69,NE,44,8.0,9.0,83,0.00,,,0.08,Wunderground v.1.15,2013-04-29 14:12:00,
2013-04-29 09:14:00,50.6,45.9,29.69,NE,45,9.0,9.0,84,0.00,,,0.08,Wunderground v.1.15,2013-04-29 14:14:00,
2013-04-29 09:16:00,50.6,46.3,29.69,NE,56,9.0,9.0,85,0.00,,,0.08,Wunderground v.1.15,2013-04-29 14:16:00,
2013-04-29 09:18:00,50.6,46.3,29.69,NE,49,9.0,9.0,85,0.00,,,0.08,Wunderground v.1.15,2013-04-29 14:18:00,
2013-04-29 09:20:00,50.9,46.9,29.69,NE,56,9.0,9.0,86,0.00,,,0.08,Wunderground v.1.15,2013-04-29 14:20:00,
2013-04-29 09:22:00,51.0,46.3,29.69,NNE,26,8.0,9.0,84,0.00,,,0.08,Wunderground v.1.15,2013-04-29 14:22:00,
2013-04-29 09:26:00,51.3,47.3,29.69,NE,39,7.0,10.0,86,0.00,,,0.08,Wunderground v.1.15,2013-04-29 14:26:00,
2013-04-29 09:28:00,51.4,47.0,29.69,NE,53,7.0,10.0,85,0.00,,,0.08,Wunderground v.1.15,2013-04-29 14:28:00,
2013-04-29 09:30:00,51.4,47.0,29.69,NE,43,7.0,9.0,85,0.00,,,0.08,Wunderground v.1.15,2013-04-29 14:30:00,
2013-04-29 09:32:00,51.4,47.0,29.68,NE,53,7.0,9.0,85,0.00,,,0.08,Wunderground v.1.15,2013-04-29 14:32:00,
2013-04-29 09:36:00,51.9,47.5,29.68,NNE,28,8.0,10.0,85,0.00,,,0.08,Wunderground v.1.15,2013-04-29 14:36:00,
2013-04-29 09:38:00,52.3,47.9,29.69,NE,38,8.0,10.0,85,0.00,,,0.08,Wunderground v.1.15,2013-04-29 14:38:00,
2013-04-29 09:40:00,52.4,47.7,29.69,NNE,28,8.0,9.0,84,0.00,,,0.08,Wunderground v.1.15,2013-04-29 14:40:00,
2013-04-29 09:44:00,52.6,47.9,29.68,NNE,32,9.0,9.0,84,0.00,,,0.08,Wunderground v.1.15,2013-04-29 14:44:00,
2013-04-29 09:48:00,52.5,47.8,29.68,NE,53,9.0,9.0,84,0.00,,,0.08,Wunderground v.1.15,2013-04-29 14:48:00,
2013-04-29 09:50:00,52.7,48.3,29.68,NE,41,8.0,8.0,85,0.00,,,0.08,Wunderground v.1.15,2013-04-29 14:50:00,
2013-04-29 09:52:00,52.8,48.4,29.68,NE,38,8.0,9.0,85,0.00,,,0.08,Wunderground v.1.15,2013-04-29 14:52:00,
2013-04-29 09:54:00,52.8,47.8,29.68,NE,37,7.0,9.0,83,0.00,,,0.08,Wunderground v.1.15,2013-04-29 14:54:00,
2013-04-29 09:56:00,52.8,47.8,29.68,NE,46,7.0,10.0,83,0.00,,,0.08,Wunderground v.1.15,2013-04-29 14:56:00,
2013-04-29 09:58:00,52.9,47.9,29.68,NE,41,7.0,10.0,83,0.00,,,0.08,Wunderground v.1.15,2013-04-29 14:58:00,
2013-04-29 10:00:00,53.2,48.8,29.67,East,94,8.0,8.0,85,0.00,,,0.08,Wunderground v.1.15,2013-04-29 15:00:00,
2013-04-29 10:02:00,53.6,48.9,29.67,NNE,30,7.0,9.0,84,0.00,,,0.08,Wunderground v.1.15,2013-04-29 15:02:00,
2013-04-29 10:04:00,53.9,49.2,29.67,ESE,104,7.0,9.0,84,0.00,,,0.08,Wunderground v.1.15,2013-04-29 15:04:00,
2013-04-29 10:06:00,54.0,48.6,29.67,ENE,57,7.0,9.0,82,0.00,,,0.08,Wunderground v.1.15,2013-04-29 15:06:00,
2013-04-29 10:08:00,54.0,48.6,29.67,NE,53,6.0,9.0,82,0.00,,,0.08,Wunderground v.1.15,2013-04-29 15:08:00,
2013-04-29 10:10:00,54.0,48.6,29.67,NE,39,6.0,9.0,82,0.00,,,0.08,Wunderground v.1.15,2013-04-29 15:10:00,
2013-04-29 10:12:00,54.2,49.1,29.67,ENE,67,6.0,9.0,83,0.00,,,0.08,Wunderground v.1.15,2013-04-29 15:12:00,
2013-04-29 10:16:00,54.4,49.3,29.67,ENE,67,6.0,9.0,83,0.00,,,0.08,Wunderground v.1.15,2013-04-29 15:16:00,
2013-04-29 10:18:00,54.5,49.1,29.66,NE,43,6.0,9.0,82,0.00,,,0.08,Wunderground v.1.15,2013-04-29 15:18:00,
2013-04-29 10:20:00,54.7,49.3,29.66,ENE,57,6.0,9.0,82,0.00,,,0.08,Wunderground v.1.15,2013-04-29 15:20:00,
2013-04-29 10:24:00,55.0,49.9,29.66,ENE,63,6.0,9.0,83,0.00,,,0.08,Wunderground v.1.15,2013-04-29 15:24:00,
2013-04-29 10:26:00,55.3,50.2,29.66,NE,45,6.0,9.0,83,0.00,,,0.08,Wunderground v.1.15,2013-04-29 15:26:00,
2013-04-29 10:28:00,55.5,50.1,29.66,ENE,69,6.0,9.0,82,0.00,,,0.08,Wunderground v.1.15,2013-04-29 15:28:00,
2013-04-29 10:30:00,55.7,50.0,29.66,NNE,27,6.0,6.0,81,0.00,,,0.08,Wunderground v.1.15,2013-04-29 15:30:00,
2013-04-29 10:32:00,55.9,50.5,29.65,ENE,65,5.0,9.0,82,0.00,,,0.08,Wunderground v.1.15,2013-04-29 15:32:00,
2013-04-29 10:36:00,56.2,50.8,29.65,NE,53,5.0,9.0,82,0.00,,,0.08,Wunderground v.1.15,2013-04-29 15:36:00,
2013-04-29 10:42:00,56.9,51.1,29.65,NE,39,6.0,9.0,81,0.00,,,0.08,Wunderground v.1.15,2013-04-29 15:42:00,
2013-04-29 10:44:00,57.2,51.4,29.65,NE,40,6.0,9.0,81,0.00,,,0.08,Wunderground v.1.15,2013-04-29 15:44:00,
2013-04-29 10:50:00,57.9,51.8,29.65,NE,53,5.0,9.0,80,0.00,,,0.08,Wunderground v.1.15,2013-04-29 15:50:00,
2013-04-29 10:52:00,58.0,51.9,29.65,SE,132,5.0,9.0,80,0.00,,,0.08,Wunderground v.1.15,2013-04-29 15:52:00,
2013-04-29 10:54:00,58.2,52.1,29.65,East,80,5.0,9.0,80,0.00,,,0.08,Wunderground v.1.15,2013-04-29 15:54:00,
2013-04-29 10:56:00,58.3,51.8,29.65,NE,46,4.0,9.0,79,0.00,,,0.08,Wunderground v.1.15,2013-04-29 15:56:00,
2013-04-29 10:58:00,58.4,51.9,29.65,East,90,4.0,9.0,79,0.00,,,0.08,Wunderground v.1.15,2013-04-29 15:58:00,
2013-04-29 11:00:00,58.7,52.2,29.65,NE,38,4.0,9.0,79,0.00,,,0.08,Wunderground v.1.15,2013-04-29 16:00:00,
2013-04-29 11:02:00,58.9,52.1,29.65,SE,138,3.0,9.0,78,0.00,,,0.08,Wunderground v.1.15,2013-04-29 16:02:00,
2013-04-29 11:04:00,59.1,52.2,29.65,ENE,58,3.0,9.0,78,0.00,,,0.08,Wunderground v.1.15,2013-04-29 16:04:00,
2013-04-29 11:06:00,59.4,52.5,29.65,East,94,3.0,9.0,78,0.00,,,0.08,Wunderground v.1.15,2013-04-29 16:06:00,
2013-04-29 11:08:00,59.7,52.5,29.65,NE,46,2.0,9.0,77,0.00,,,0.08,Wunderground v.1.15,2013-04-29 16:08:00,
2013-04-29 11:12:00,60.0,52.4,29.65,ESE,118,2.0,9.0,76,0.00,,,0.08,Wunderground v.1.15,2013-04-29 16:12:00,
2013-04-29 11:14:00,60.2,52.2,29.65,ENE,72,2.0,9.0,75,0.00,,,0.08,Wunderground v.1.15,2013-04-29 16:14:00,
2013-04-29 11:20:00,60.4,52.8,29.64,NE,52,3.0,3.0,76,0.00,,,0.08,Wunderground v.1.15,2013-04-29 16:20:00,
2013-04-29 11:22:00,60.5,52.5,29.64,NE,47,3.0,9.0,75,0.00,,,0.08,Wunderground v.1.15,2013-04-29 16:22:00,
2013-04-29 11:24:00,60.5,52.9,29.64,ESE,111,3.0,9.0,76,0.00,,,0.08,Wunderground v.1.15,2013-04-29 16:24:00,
2013-04-29 11:26:00,60.7,52.7,29.64,ENE,61,3.0,9.0,75,0.00,,,0.08,Wunderground v.1.15,2013-04-29 16:26:00,
2013-04-29 11:30:00,61.1,53.5,29.64,NE,37,3.0,9.0,76,0.00,,,0.08,Wunderground v.1.15,2013-04-29 16:30:00,
2013-04-29 11:32:00,61.3,53.3,29.64,ENE,73,3.0,9.0,75,0.00,,,0.08,Wunderground v.1.15,2013-04-29 16:32:00,
2013-04-29 11:34:00,61.5,53.5,29.64,NNE,15,3.0,9.0,75,0.00,,,0.08,Wunderground v.1.15,2013-04-29 16:34:00,
2013-04-29 11:38:00,61.8,53.8,29.64,NE,47,3.0,9.0,75,0.00,,,0.08,Wunderground v.1.15,2013-04-29 16:38:00,
2013-04-29 11:40:00,62.0,53.6,29.64,NE,53,3.0,3.0,74,0.00,,,0.08,Wunderground v.1.15,2013-04-29 16:40:00,
2013-04-29 11:42:00,62.1,53.7,29.64,ENE,60,3.0,9.0,74,0.00,,,0.08,Wunderground v.1.15,2013-04-29 16:42:00,
2013-04-29 11:44:00,62.1,53.7,29.63,NE,51,3.0,9.0,74,0.00,,,0.08,Wunderground v.1.15,2013-04-29 16:44:00,
2013-04-29 11:46:00,62.2,53.4,29.63,East,84,3.0,9.0,73,0.00,,,0.08,Wunderground v.1.15,2013-04-29 16:46:00,
2013-04-29 11:50:00,62.6,54.2,29.63,NE,44,3.0,9.0,74,0.00,,,0.08,Wunderground v.1.15,2013-04-29 16:50:00,
2013-04-29 11:52:00,62.8,53.6,29.63,ENE,69,3.0,9.0,72,0.00,,,0.08,Wunderground v.1.15,2013-04-29 16:52:00,
2013-04-29 11:56:00,63.1,53.9,29.63,ENE,72,3.0,9.0,72,0.00,,,0.08,Wunderground v.1.15,2013-04-29 16:56:00,
2013-04-29 11:58:00,63.2,53.6,29.63,ENE,75,3.0,9.0,71,0.00,,,0.08,Wunderground v.1.15,2013-04-29 16:58:00,
2013-04-29 12:04:00,64.2,55.0,29.63,ENE,72,2.0,9.0,72,0.00,,,0.08,Wunderground v.1.15,2013-04-29 17:04:00,
2013-04-29 12:06:00,64.6,55.0,29.63,ENE,57,2.0,9.0,71,0.00,,,0.08,Wunderground v.1.15,2013-04-29 17:06:00,
2013-04-29 12:08:00,64.9,54.9,29.63,NE,51,2.0,9.0,70,0.00,,,0.08,Wunderground v.1.15,2013-04-29 17:08:00,
2013-04-29 12:10:00,65.1,55.1,29.63,NE,40,1.0,1.0,70,0.00,,,0.08,Wunderground v.1.15,2013-04-29 17:10:00,
2013-04-29 12:12:00,65.4,55.7,29.62,SE,134,1.0,1.0,71,0.00,,,0.08,Wunderground v.1.15,2013-04-29 17:12:00,
2013-04-29 12:14:00,65.8,55.7,29.62,South,172,2.0,2.0,70,0.00,,,0.08,Wunderground v.1.15,2013-04-29 17:14:00,
2013-04-29 12:18:00,66.3,55.4,29.61,NE,44,2.0,3.0,68,0.00,,,0.08,Wunderground v.1.15,2013-04-29 17:18:00,
2013-04-29 12:20:00,66.3,55.0,29.61,ENE,73,2.0,2.0,67,0.00,,,0.08,Wunderground v.1.15,2013-04-29 17:20:00,
2013-04-29 12:22:00,66.2,54.9,29.61,ENE,59,2.0,2.0,67,0.00,,,0.08,Wunderground v.1.15,2013-04-29 17:22:00,
2013-04-29 12:26:00,66.1,55.2,29.61,NE,50,2.0,3.0,68,0.00,,,0.08,Wunderground v.1.15,2013-04-29 17:26:00,
2013-04-29 12:30:00,66.0,55.1,29.60,SSE,160,3.0,3.0,68,0.00,,,0.08,Wunderground v.1.15,2013-04-29 17:30:00,
2013-04-29 12:32:00,66.2,56.1,29.60,South,169,2.0,3.0,70,0.00,,,0.08,Wunderground v.1.15,2013-04-29 17:32:00,
2013-04-29 12:34:00,66.5,55.6,29.60,NE,47,2.0,3.0,68,0.00,,,0.08,Wunderground v.1.15,2013-04-29 17:34:00,
2013-04-29 12:38:00,67.2,55.9,29.60,NNE,25,2.0,3.0,67,0.00,,,0.08,Wunderground v.1.15,2013-04-29 17:38:00,
2013-04-29 12:40:00,67.5,56.2,29.60,WSW,240,2.0,2.0,67,0.00,,,0.08,Wunderground v.1.15,2013-04-29 17:40:00,
2013-04-29 12:46:00,68.2,56.0,29.60,NNE,15,2.0,2.0,65,0.00,,,0.08,Wunderground v.1.15,2013-04-29 17:46:00,
2013-04-29 12:48:00,68.2,56.0,29.60,SSW,207,2.0,2.0,65,0.00,,,0.08,Wunderground v.1.15,2013-04-29 17:48:00,
2013-04-29 12:50:00,68.3,56.1,29.59,SSE,166,2.0,4.0,65,0.00,,,0.08,Wunderground v.1.15,2013-04-29 17:50:00,
2013-04-29 12:52:00,68.3,55.2,29.59,ESE,120,3.0,6.0,63,0.00,,,0.08,Wunderground v.1.15,2013-04-29 17:52:00,
2013-04-29 12:56:00,67.8,55.6,29.59,SE,136,4.0,6.0,65,0.00,,,0.08,Wunderground v.1.15,2013-04-29 17:56:00,
2013-04-29 12:58:00,67.9,55.7,29.59,SSE,155,4.0,6.0,65,0.00,,,0.08,Wunderground v.1.15,2013-04-29 17:58:00,
2013-04-29 13:00:00,67.9,55.3,29.59,SSE,150,4.0,4.0,64,0.00,,,0.08,Wunderground v.1.15,2013-04-29 18:00:00,
2013-04-29 13:02:00,68.1,55.9,29.59,SW,214,4.0,6.0,65,0.00,,,0.08,Wunderground v.1.15,2013-04-29 18:02:00,
2013-04-29 13:04:00,68.2,55.6,29.58,SE,140,4.0,6.0,64,0.00,,,0.08,Wunderground v.1.15,2013-04-29 18:04:00,
2013-04-29 13:06:00,68.2,55.6,29.58,WNW,290,4.0,6.0,64,0.00,,,0.08,Wunderground v.1.15,2013-04-29 18:06:00,
2013-04-29 13:10:00,68.4,55.7,29.58,SE,145,3.0,6.0,64,0.00,,,0.08,Wunderground v.1.15,2013-04-29 18:10:00,
2013-04-29 13:12:00,68.5,55.8,29.58,South,172,3.0,6.0,64,0.00,,,0.08,Wunderground v.1.15,2013-04-29 18:12:00,
2013-04-29 13:14:00,68.6,55.9,29.58,SSE,153,3.0,6.0,64,0.00,,,0.08,Wunderground v.1.15,2013-04-29 18:14:00,
2013-04-29 13:16:00,68.6,55.9,29.58,SE,146,3.0,6.0,64,0.00,,,0.08,Wunderground v.1.15,2013-04-29 18:16:00,
2013-04-29 13:18:00,68.6,55.9,29.58,WSW,238,3.0,6.0,64,0.00,,,0.08,Wunderground v.1.15,2013-04-29 18:18:00,
2013-04-29 13:20:00,68.8,56.6,29.58,SSE,148,3.0,3.0,65,0.00,,,0.08,Wunderground v.1.15,2013-04-29 18:20:00,
2013-04-29 13:22:00,69.0,55.9,29.58,SSE,152,3.0,6.0,63,0.00,,,0.08,Wunderground v.1.15,2013-04-29 18:22:00,
2013-04-29 13:24:00,69.2,56.1,29.58,SSW,197,3.0,6.0,63,0.00,,,0.08,Wunderground v.1.15,2013-04-29 18:24:00,
2013-04-29 13:30:00,69.1,55.5,29.57,SSE,152,4.0,6.0,62,0.00,,,0.08,Wunderground v.1.15,2013-04-29 18:30:00,
2013-04-29 13:32:00,69.1,55.5,29.57,SE,134,4.0,6.0,62,0.00,,,0.08,Wunderground v.1.15,2013-04-29 18:32:00,
2013-04-29 13:34:00,68.9,55.3,29.58,SW,226,5.0,6.0,62,0.00,,,0.08,Wunderground v.1.15,2013-04-29 18:34:00,
2013-04-29 13:36:00,69.0,55.4,29.58,SSE,155,4.0,6.0,62,0.00,,,0.08,Wunderground v.1.15,2013-04-29 18:36:00,
2013-04-29 13:38:00,69.1,55.5,29.57,SSE,152,4.0,6.0,62,0.00,,,0.08,Wunderground v.1.15,2013-04-29 18:38:00,
2013-04-29 13:40:00,69.0,55.4,29.57,SE,134,4.0,6.0,62,0.00,,,0.08,Wunderground v.1.15,2013-04-29 18:40:00,
2013-04-29 13:42:00,68.6,55.1,29.57,SSE,161,5.0,6.0,62,0.00,,,0.08,Wunderground v.1.15,2013-04-29 18:42:00,
2013-04-29 13:44:00,68.5,55.0,29.57,SSE,152,4.0,6.0,62,0.00,,,0.08,Wunderground v.1.15,2013-04-29 18:44:00,
2013-04-29 13:46:00,68.8,56.6,29.58,SE,142,4.0,6.0,65,0.00,,,0.08,Wunderground v.1.15,2013-04-29 18:46:00,
2013-04-29 13:48:00,68.9,56.2,29.58,South,176,5.0,6.0,64,0.00,,,0.08,Wunderground v.1.15,2013-04-29 18:48:00,
2013-04-29 13:50:00,68.9,55.8,29.58,SE,125,5.0,6.0,63,0.00,,,0.08,Wunderground v.1.15,2013-04-29 18:50:00,
2013-04-29 13:54:00,68.6,55.9,29.58,ESE,113,4.0,6.0,64,0.00,,,0.08,Wunderground v.1.15,2013-04-29 18:54:00,
2013-04-29 13:56:00,68.6,55.9,29.58,SSE,157,4.0,6.0,64,0.00,,,0.08,Wunderground v.1.15,2013-04-29 18:56:00,
2013-04-29 14:00:00,68.6,55.5,29.58,SE,142,4.0,6.0,63,0.00,,,0.08,Wunderground v.1.15,2013-04-29 19:00:00,
2013-04-29 14:02:00,68.8,56.1,29.58,SSE,148,4.0,6.0,64,0.00,,,0.08,Wunderground v.1.15,2013-04-29 19:02:00,
2013-04-29 14:06:00,69.2,56.1,29.58,SE,136,4.0,6.0,63,0.00,,,0.08,Wunderground v.1.15,2013-04-29 19:06:00,
2013-04-29 14:08:00,69.1,54.2,29.58,ESE,115,4.0,6.0,59,0.00,,,0.08,Wunderground v.1.15,2013-04-29 19:08:00,
2013-04-29 14:14:00,69.5,56.8,29.58,SE,135,5.0,6.0,64,0.00,,,0.08,Wunderground v.1.15,2013-04-29 19:14:00,
2013-04-29 14:16:00,69.7,57.0,29.58,ESE,123,5.0,6.0,64,0.00,,,0.08,Wunderground v.1.15,2013-04-29 19:16:00,
2013-04-29 14:18:00,69.7,56.5,29.58,SSE,150,5.0,6.0,63,0.00,,,0.08,Wunderground v.1.15,2013-04-29 19:18:00,
2013-04-29 14:20:00,69.8,56.6,29.57,ESE,115,5.0,6.0,63,0.00,,,0.08,Wunderground v.1.15,2013-04-29 19:20:00,
2013-04-29 14:24:00,69.9,55.8,29.57,SE,136,5.0,7.0,61,0.00,,,0.08,Wunderground v.1.15,2013-04-29 19:24:00,
2013-04-29 14:26:00,69.9,55.8,29.57,SE,142,5.0,7.0,61,0.00,,,0.08,Wunderground v.1.15,2013-04-29 19:26:00,
2013-04-29 14:28:00,70.0,56.4,29.57,SE,142,4.0,7.0,62,0.00,,,0.08,Wunderground v.1.15,2013-04-29 19:28:00,
2013-04-29 14:32:00,70.5,56.9,29.57,SE,131,4.0,6.0,62,0.00,,,0.08,Wunderground v.1.15,2013-04-29 19:32:00,
2013-04-29 14:34:00,70.7,56.6,29.57,SE,128,4.0,6.0,61,0.00,,,0.08,Wunderground v.1.15,2013-04-29 19:34:00,
2013-04-29 14:36:00,71.0,57.3,29.57,SSE,155,4.0,6.0,62,0.00,,,0.08,Wunderground v.1.15,2013-04-29 19:36:00,
2013-04-29 14:38:00,71.2,57.1,29.57,SSW,195,3.0,6.0,61,0.00,,,0.08,Wunderground v.1.15,2013-04-29 19:38:00,
2013-04-29 14:40:00,71.4,57.7,29.57,South,180,3.0,6.0,62,0.00,,,0.08,Wunderground v.1.15,2013-04-29 19:40:00,
2013-04-29 14:44:00,71.8,57.2,29.57,SSE,161,3.0,6.0,60,0.00,,,0.08,Wunderground v.1.15,2013-04-29 19:44:00,
2013-04-29 14:46:00,71.7,57.1,29.57,SE,134,4.0,6.0,60,0.00,,,0.08,Wunderground v.1.15,2013-04-29 19:46:00,
2013-04-29 14:50:00,71.7,56.6,29.56,SSE,148,4.0,6.0,59,0.00,,,0.08,Wunderground v.1.15,2013-04-29 19:50:00,
2013-04-29 14:52:00,71.6,57.0,29.56,ESE,110,5.0,6.0,60,0.00,,,0.08,Wunderground v.1.15,2013-04-29 19:52:00,
2013-04-29 14:54:00,71.6,57.4,29.56,SSE,155,4.0,6.0,61,0.00,,,0.08,Wunderground v.1.15,2013-04-29 19:54:00,
2013-04-29 14:56:00,71.7,57.5,29.56,SSE,148,5.0,6.0,61,0.00,,,0.08,Wunderground v.1.15,2013-04-29 19:56:00,
2013-04-29 15:00:00,71.4,56.3,29.56,SE,125,5.0,5.0,59,0.00,,,0.08,Wunderground v.1.15,2013-04-29 20:00:00,
2013-04-29 15:02:00,71.3,56.7,29.56,SE,128,5.0,6.0,60,0.00,,,0.08,Wunderground v.1.15,2013-04-29 20:02:00,
2013-04-29 15:04:00,71.6,56.5,29.56,SE,142,5.0,6.0,59,0.00,,,0.08,Wunderground v.1.15,2013-04-29 20:04:00,
2013-04-29 15:06:00,71.6,56.0,29.56,SE,137,5.0,7.0,58,0.00,,,0.08,Wunderground v.1.15,2013-04-29 20:06:00,
2013-04-29 15:08:00,71.6,55.6,29.56,SE,146,5.0,9.0,57,0.00,,,0.08,Wunderground v.1.15,2013-04-29 20:08:00,
2013-04-29 15:12:00,72.1,54.5,29.56,SSE,160,5.0,6.0,54,0.00,,,0.08,Wunderground v.1.15,2013-04-29 20:12:00,
2013-04-29 15:14:00,72.3,54.2,29.56,SE,125,5.0,6.0,53,0.00,,,0.08,Wunderground v.1.15,2013-04-29 20:14:00,
2013-04-29 15:16:00,72.2,56.1,29.56,SE,145,6.0,7.0,57,0.00,,,0.08,Wunderground v.1.15,2013-04-29 20:16:00,
2013-04-29 15:20:00,71.8,53.7,29.56,ESE,118,6.0,6.0,53,0.00,,,0.08,Wunderground v.1.15,2013-04-29 20:20:00,
2013-04-29 15:24:00,71.9,54.9,29.55,SE,136,6.0,7.0,55,0.00,,,0.08,Wunderground v.1.15,2013-04-29 20:24:00,
2013-04-29 15:26:00,71.9,54.9,29.55,SE,124,6.0,7.0,55,0.00,,,0.08,Wunderground v.1.15,2013-04-29 20:26:00,
2013-04-29 15:28:00,72.0,54.9,29.55,SSE,150,5.0,9.0,55,0.00,,,0.08,Wunderground v.1.15,2013-04-29 20:28:00,
2013-04-29 15:30:00,72.0,54.9,29.55,SE,145,6.0,8.0,55,0.00,,,0.08,Wunderground v.1.15,2013-04-29 20:30:00,
2013-04-29 15:32:00,72.0,54.9,29.55,SE,142,7.0,8.0,55,0.00,,,0.08,Wunderground v.1.15,2013-04-29 20:32:00,
2013-04-29 15:36:00,72.4,54.3,29.55,SE,128,6.0,8.0,53,0.00,,,0.08,Wunderground v.1.15,2013-04-29 20:36:00,
2013-04-29 15:38:00,72.4,54.3,29.55,SE,142,6.0,8.0,53,0.00,,,0.08,Wunderground v.1.15,2013-04-29 20:38:00,
2013-04-29 15:40:00,72.4,54.3,29.55,SE,134,5.0,6.0,53,0.00,,,0.08,Wunderground v.1.15,2013-04-29 20:40:00,
2013-04-29 15:46:00,72.4,55.3,29.54,SE,131,5.0,6.0,55,0.00,,,0.08,Wunderground v.1.15,2013-04-29 20:46:00,
2013-04-29 15:48:00,72.7,55.1,29.54,SE,145,5.0,6.0,54,0.00,,,0.08,Wunderground v.1.15,2013-04-29 20:48:00,
2013-04-29 15:54:00,73.1,56.0,29.54,SE,138,5.0,6.0,55,0.00,,,0.08,Wunderground v.1.15,2013-04-29 20:54:00,
2013-04-29 15:56:00,73.3,56.2,29.54,SE,134,4.0,6.0,55,0.00,,,0.08,Wunderground v.1.15,2013-04-29 20:56:00,
2013-04-29 16:00:00,72.9,55.8,29.54,SE,140,5.0,6.0,55,0.00,,,0.08,Wunderground v.1.15,2013-04-29 21:00:00,
2013-04-29 16:02:00,72.4,56.3,29.54,SE,142,5.0,6.0,57,0.00,,,0.08,Wunderground v.1.15,2013-04-29 21:02:00,
2013-04-29 16:04:00,72.2,56.1,29.54,SE,146,5.0,6.0,57,0.00,,,0.08,Wunderground v.1.15,2013-04-29 21:04:00,
2013-04-29 16:06:00,72.2,55.6,29.54,SSW,205,5.0,6.0,56,0.00,,,0.08,Wunderground v.1.15,2013-04-29 21:06:00,
2013-04-29 16:08:00,72.2,55.6,29.54,SE,132,5.0,6.0,56,0.00,,,0.08,Wunderground v.1.15,2013-04-29 21:08:00,
2013-04-29 16:12:00,72.2,54.6,29.53,SE,139,4.0,7.0,54,0.00,,,0.08,Wunderground v.1.15,2013-04-29 21:12:00,
2013-04-29 16:14:00,72.3,54.7,29.54,SE,146,4.0,7.0,54,0.00,,,0.08,Wunderground v.1.15,2013-04-29 21:14:00,
2013-04-29 16:16:00,72.1,55.0,29.53,SE,131,4.0,7.0,55,0.00,,,0.08,Wunderground v.1.15,2013-04-29 21:16:00,
2013-04-29 16:18:00,71.9,55.3,29.53,SSE,153,4.0,7.0,56,0.00,,,0.08,Wunderground v.1.15,2013-04-29 21:18:00,
2013-04-29 16:20:00,72.2,56.1,29.53,SE,144,4.0,4.0,57,0.00,,,0.08,Wunderground v.1.15,2013-04-29 21:20:00,
2013-04-29 16:24:00,73.0,56.4,29.53,SSE,153,4.0,7.0,56,0.00,,,0.08,Wunderground v.1.15,2013-04-29 21:24:00,
2013-04-29 16:26:00,73.3,54.6,29.53,South,189,5.0,7.0,52,0.00,,,0.08,Wunderground v.1.15,2013-04-29 21:26:00,
2013-04-29 16:30:00,74.1,54.8,29.53,South,176,5.0,5.0,51,0.00,,,0.08,Wunderground v.1.15,2013-04-29 21:30:00,
2013-04-29 16:32:00,74.5,55.2,29.53,South,181,5.0,6.0,51,0.00,,,0.08,Wunderground v.1.15,2013-04-29 21:32:00,
2013-04-29 16:38:00,74.9,56.1,29.52,SE,141,5.0,7.0,52,0.00,,,0.08,Wunderground v.1.15,2013-04-29 21:38:00,
2013-04-29 16:40:00,74.7,55.4,29.52,SE,145,5.0,6.0,51,0.00,,,0.08,Wunderground v.1.15,2013-04-29 21:40:00,
2013-04-29 16:44:00,74.6,56.3,29.52,SSE,166,5.0,6.0,53,0.00,,,0.08,Wunderground v.1.15,2013-04-29 21:44:00,
2013-04-29 16:48:00,74.7,55.4,29.52,SSW,199,5.0,6.0,51,0.00,,,0.08,Wunderground v.1.15,2013-04-29 21:48:00,
2013-04-29 16:52:00,75.2,54.2,29.52,SE,136,4.0,6.0,48,0.00,,,0.08,Wunderground v.1.15,2013-04-29 21:52:00,
2013-04-29 16:54:00,75.5,55.0,29.52,SE,137,4.0,6.0,49,0.00,,,0.08,Wunderground v.1.15,2013-04-29 21:54:00,
2013-04-29 16:58:00,75.3,55.4,29.51,South,184,4.0,7.0,50,0.00,,,0.08,Wunderground v.1.15,2013-04-29 21:58:00,
2013-04-29 17:00:00,75.1,56.3,29.51,SE,146,4.0,8.0,52,0.00,,,0.08,Wunderground v.1.15,2013-04-29 22:00:00,
2013-04-29 17:02:00,74.9,54.4,29.51,SE,134,5.0,8.0,49,0.00,,,0.08,Wunderground v.1.15,2013-04-29 22:02:00,
2013-04-29 17:04:00,74.7,54.8,29.51,SSE,149,5.0,8.0,50,0.00,,,0.08,Wunderground v.1.15,2013-04-29 22:04:00,
2013-04-29 17:06:00,74.4,55.6,29.51,SSE,163,5.0,8.0,52,0.00,,,0.08,Wunderground v.1.15,2013-04-29 22:06:00,
2013-04-29 17:12:00,74.0,54.2,29.51,SSE,153,5.0,7.0,50,0.00,,,0.08,Wunderground v.1.15,2013-04-29 22:12:00,
2013-04-29 17:14:00,73.5,54.3,29.51,SE,126,6.0,7.0,51,0.00,,,0.08,Wunderground v.1.15,2013-04-29 22:14:00,
2013-04-29 17:18:00,72.4,54.3,29.51,SSE,150,5.0,7.0,53,0.00,,,0.08,Wunderground v.1.15,2013-04-29 22:18:00,
2013-04-29 17:20:00,72.4,54.8,29.51,SE,125,5.0,5.0,54,0.00,,,0.08,Wunderground v.1.15,2013-04-29 22:20:00,
2013-04-29 17:24:00,73.0,53.8,29.51,SSE,155,4.0,6.0,51,0.00,,,0.08,Wunderground v.1.15,2013-04-29 22:24:00,
2013-04-29 17:26:00,73.2,54.0,29.51,SE,135,4.0,6.0,51,0.00,,,0.08,Wunderground v.1.15,2013-04-29 22:26:00,
2013-04-29 17:28:00,73.3,54.6,29.51,SSE,152,4.0,6.0,52,0.00,,,0.08,Wunderground v.1.15,2013-04-29 22:28:00,
2013-04-29 17:32:00,73.2,52.3,29.50,SE,131,5.0,7.0,48,0.00,,,0.08,Wunderground v.1.15,2013-04-29 22:32:00,
2013-04-29 17:34:00,73.3,51.8,29.50,SE,139,5.0,7.0,47,0.00,,,0.08,Wunderground v.1.15,2013-04-29 22:34:00,
2013-04-29 17:36:00,73.7,52.8,29.50,SE,139,5.0,7.0,48,0.00,,,0.08,Wunderground v.1.15,2013-04-29 22:36:00,
2013-04-29 17:38:00,74.1,53.2,29.50,SSE,152,5.0,7.0,48,0.00,,,0.08,Wunderground v.1.15,2013-04-29 22:38:00,
2013-04-29 17:44:00,73.7,53.9,29.50,SSW,207,4.0,6.0,50,0.00,,,0.08,Wunderground v.1.15,2013-04-29 22:44:00,
2013-04-29 17:46:00,73.9,53.5,29.50,SSW,194,4.0,6.0,49,0.00,,,0.08,Wunderground v.1.15,2013-04-29 22:46:00,
2013-04-29 17:50:00,74.8,54.4,29.50,SE,142,4.0,6.0,49,0.00,,,0.08,Wunderground v.1.15,2013-04-29 22:50:00,
2013-04-29 17:52:00,74.8,53.8,29.50,SE,143,4.0,6.0,48,0.00,,,0.08,Wunderground v.1.15,2013-04-29 22:52:00,
2013-04-29 17:56:00,75.0,54.0,29.50,SE,138,3.0,6.0,48,0.00,,,0.08,Wunderground v.1.15,2013-04-29 22:56:00,
2013-04-29 18:00:00,75.4,54.3,29.50,SE,131,2.0,6.0,48,0.00,,,0.08,Wunderground v.1.15,2013-04-29 23:00:00,
2013-04-29 18:02:00,75.5,54.4,29.50,SE,135,2.0,6.0,48,0.00,,,0.08,Wunderground v.1.15,2013-04-29 23:02:00,
2013-04-29 18:04:00,75.3,53.7,29.50,SE,131,3.0,6.0,47,0.00,,,0.08,Wunderground v.1.15,2013-04-29 23:04:00,
2013-04-29 18:06:00,75.0,54.0,29.50,SE,136,3.0,6.0,48,0.00,,,0.08,Wunderground v.1.15,2013-04-29 23:06:00,
2013-04-29 18:08:00,74.4,54.5,29.49,SE,128,3.0,6.0,50,0.00,,,0.08,Wunderground v.1.15,2013-04-29 23:08:00,
2013-04-29 18:12:00,73.6,54.4,29.49,SE,132,4.0,6.0,51,0.00,,,0.08,Wunderground v.1.15,2013-04-29 23:12:00,
2013-04-29 18:14:00,73.6,54.4,29.49,SE,125,4.0,6.0,51,0.00,,,0.08,Wunderground v.1.15,2013-04-29 23:14:00,
2013-04-29 18:16:00,73.5,54.3,29.49,SSE,148,4.0,6.0,51,0.00,,,0.08,Wunderground v.1.15,2013-04-29 23:16:00,
2013-04-29 18:18:00,73.3,54.6,29.49,SE,145,4.0,6.0,52,0.00,,,0.08,Wunderground v.1.15,2013-04-29 23:18:00,
2013-04-29 18:20:00,73.0,54.3,29.49,SSE,151,4.0,4.0,52,0.00,,,0.08,Wunderground v.1.15,2013-04-29 23:20:00,
2013-04-29 18:24:00,72.4,54.3,29.48,SE,138,3.0,6.0,53,0.00,,,0.08,Wunderground v.1.15,2013-04-29 23:24:00,
2013-04-29 18:26:00,72.5,53.9,29.48,SE,140,3.0,6.0,52,0.00,,,0.08,Wunderground v.1.15,2013-04-29 23:26:00,
2013-04-29 18:28:00,72.6,54.0,29.48,SE,135,3.0,6.0,52,0.00,,,0.08,Wunderground v.1.15,2013-04-29 23:28:00,
2013-04-29 18:30:00,72.5,53.9,29.48,SE,136,3.0,6.0,52,0.00,,,0.08,Wunderground v.1.15,2013-04-29 23:30:00,
2013-04-29 18:32:00,72.4,53.8,29.48,SE,137,3.0,6.0,52,0.00,,,0.08,Wunderground v.1.15,2013-04-29 23:32:00,
2013-04-29 18:34:00,72.5,53.9,29.48,SSE,148,4.0,6.0,52,0.00,,,0.08,Wunderground v.1.15,2013-04-29 23:34:00,
2013-04-29 18:38:00,72.2,54.6,29.47,SE,134,4.0,6.0,54,0.00,,,0.08,Wunderground v.1.15,2013-04-29 23:38:00,
2013-04-29 18:40:00,71.7,54.7,29.47,SE,135,4.0,4.0,55,0.00,,,0.08,Wunderground v.1.15,2013-04-29 23:40:00,
2013-04-29 18:42:00,71.5,54.0,29.47,SSE,151,4.0,5.0,54,0.00,,,0.08,Wunderground v.1.15,2013-04-29 23:42:00,
2013-04-29 18:44:00,71.6,54.1,29.47,SE,139,4.0,6.0,54,0.00,,,0.08,Wunderground v.1.15,2013-04-29 23:44:00,
2013-04-29 18:48:00,71.6,54.6,29.47,SE,142,5.0,6.0,55,0.00,,,0.08,Wunderground v.1.15,2013-04-29 23:48:00,
2013-04-29 18:50:00,71.4,54.4,29.47,SE,134,5.0,5.0,55,0.00,,,0.08,Wunderground v.1.15,2013-04-29 23:50:00,
2013-04-29 18:52:00,71.3,54.8,29.47,SE,140,5.0,6.0,56,0.00,,,0.08,Wunderground v.1.15,2013-04-29 23:52:00,
2013-04-29 18:54:00,71.5,55.0,29.47,SE,131,5.0,6.0,56,0.00,,,0.08,Wunderground v.1.15,2013-04-29 23:54:00,
2013-04-29 18:56:00,71.4,54.9,29.46,SE,136,5.0,6.0,56,0.00,,,0.08,Wunderground v.1.15,2013-04-29 23:56:00,
2013-04-29 18:58:00,71.2,55.2,29.46,SE,131,4.0,6.0,57,0.00,,,0.08,Wunderground v.1.15,2013-04-29 23:58:00,
2013-04-29 19:00:00,71.2,54.7,29.46,SE,135,5.0,6.0,56,0.00,,,0.08,Wunderground v.1.15,2013-04-30 00:00:00,
2013-04-29 19:02:00,71.4,54.9,29.46,SE,126,5.0,6.0,56,0.00,,,0.08,Wunderground v.1.15,2013-04-30 00:02:00,
2013-04-29 19:04:00,71.6,54.6,29.46,SE,128,5.0,6.0,55,0.00,,,0.08,Wunderground v.1.15,2013-04-30 00:04:00,
2013-04-29 19:06:00,71.8,54.8,29.46,SE,135,5.0,6.0,55,0.00,,,0.08,Wunderground v.1.15,2013-04-30 00:06:00,
2013-04-29 19:08:00,71.9,55.3,29.46,SSE,156,5.0,6.0,56,0.00,,,0.08,Wunderground v.1.15,2013-04-30 00:08:00,
2013-04-29 19:10:00,71.9,54.9,29.46,SE,134,5.0,5.0,55,0.00,,,0.08,Wunderground v.1.15,2013-04-30 00:10:00,
2013-04-29 19:12:00,72.1,55.0,29.46,SE,128,5.0,6.0,55,0.00,,,0.08,Wunderground v.1.15,2013-04-30 00:12:00,
2013-04-29 19:16:00,72.2,55.1,29.46,SE,141,5.0,6.0,55,0.00,,,0.08,Wunderground v.1.15,2013-04-30 00:16:00,
2013-04-29 19:20:00,71.4,55.4,29.46,SE,131,4.0,4.0,57,0.00,,,0.08,Wunderground v.1.15,2013-04-30 00:20:00,
2013-04-29 19:22:00,71.0,55.0,29.46,ESE,117,4.0,5.0,57,0.00,,,0.08,Wunderground v.1.15,2013-04-30 00:22:00,
2013-04-29 19:24:00,70.9,55.4,29.46,SSE,148,4.0,6.0,58,0.00,,,0.08,Wunderground v.1.15,2013-04-30 00:24:00,
2013-04-29 19:26:00,70.9,55.4,29.45,SE,131,4.0,6.0,58,0.00,,,0.08,Wunderground v.1.15,2013-04-30 00:26:00,
2013-04-29 19:28:00,71.0,55.0,29.45,SE,139,4.0,6.0,57,0.00,,,0.08,Wunderground v.1.15,2013-04-30 00:28:00,
2013-04-29 19:30:00,71.2,55.2,29.45,SE,134,4.0,6.0,57,0.00,,,0.08,Wunderground v.1.15,2013-04-30 00:30:00,
2013-04-29 19:32:00,71.2,55.2,29.45,SSE,152,4.0,6.0,57,0.00,,,0.08,Wunderground v.1.15,2013-04-30 00:32:00,
2013-04-29 19:34:00,71.1,55.1,29.45,SE,134,4.0,6.0,57,0.00,,,0.08,Wunderground v.1.15,2013-04-30 00:34:00,
2013-04-29 19:38:00,71.2,55.2,29.45,SE,124,5.0,6.0,57,0.00,,,0.08,Wunderground v.1.15,2013-04-30 00:38:00,
2013-04-29 19:40:00,71.1,55.1,29.45,SE,135,4.0,6.0,57,0.00,,,0.08,Wunderground v.1.15,2013-04-30 00:40:00,
2013-04-29 19:44:00,70.7,55.2,29.45,SE,135,4.0,6.0,58,0.00,,,0.08,Wunderground v.1.15,2013-04-30 00:44:00,
2013-04-29 19:46:00,70.5,55.5,29.45,SE,132,4.0,6.0,59,0.00,,,0.08,Wunderground v.1.15,2013-04-30 00:46:00,
2013-04-29 19:48:00,70.1,55.6,29.45,SE,142,4.0,6.0,60,0.00,,,0.08,Wunderground v.1.15,2013-04-30 00:48:00,
2013-04-29 19:50:00,69.9,55.4,29.45,SE,139,4.0,4.0,60,0.00,,,0.08,Wunderground v.1.15,2013-04-30 00:50:00,
2013-04-29 19:54:00,69.7,55.6,29.45,SE,140,4.0,6.0,61,0.00,,,0.08,Wunderground v.1.15,2013-04-30 00:54:00,
2013-04-29 19:56:00,69.5,55.5,29.45,SE,139,4.0,6.0,61,0.00,,,0.08,Wunderground v.1.15,2013-04-30 00:56:00,
2013-04-29 20:00:00,69.1,55.5,29.45,SE,136,4.0,6.0,62,0.00,,,0.08,Wunderground v.1.15,2013-04-30 01:00:00,
2013-04-29 20:02:00,69.0,55.4,29.45,SE,135,4.0,6.0,62,0.00,,,0.08,Wunderground v.1.15,2013-04-30 01:02:00,
2013-04-29 20:08:00,68.4,55.3,29.45,SSE,156,3.0,6.0,63,0.00,,,0.08,Wunderground v.1.15,2013-04-30 01:08:00,
2013-04-29 20:10:00,68.1,55.5,29.45,SSE,151,4.0,6.0,64,0.00,,,0.08,Wunderground v.1.15,2013-04-30 01:10:00,
2013-04-29 20:12:00,67.7,55.5,29.45,SE,143,3.0,6.0,65,0.00,,,0.08,Wunderground v.1.15,2013-04-30 01:12:00,
2013-04-29 20:14:00,67.3,55.1,29.45,SE,136,3.0,6.0,65,0.00,,,0.08,Wunderground v.1.15,2013-04-30 01:14:00,
2013-04-29 20:16:00,67.0,55.3,29.45,SE,143,3.0,6.0,66,0.00,,,0.08,Wunderground v.1.15,2013-04-30 01:16:00,
2013-04-29 20:18:00,66.7,55.4,29.45,SSE,149,3.0,6.0,67,0.00,,,0.08,Wunderground v.1.15,2013-04-30 01:18:00,
2013-04-29 20:22:00,66.3,55.0,29.45,SE,139,3.0,6.0,67,0.00,,,0.08,Wunderground v.1.15,2013-04-30 01:22:00,
2013-04-29 20:24:00,66.0,55.1,29.45,SE,139,3.0,6.0,68,0.00,,,0.08,Wunderground v.1.15,2013-04-30 01:24:00,
2013-04-29 20:26:00,66.0,55.1,29.45,SE,132,4.0,6.0,68,0.00,,,0.08,Wunderground v.1.15,2013-04-30 01:26:00,
2013-04-29 20:28:00,66.1,55.2,29.45,SE,134,4.0,6.0,68,0.00,,,0.08,Wunderground v.1.15,2013-04-30 01:28:00,
2013-04-29 20:32:00,66.7,55.4,29.45,SE,139,5.0,6.0,67,0.00,,,0.08,Wunderground v.1.15,2013-04-30 01:32:00,
2013-04-29 20:36:00,67.0,55.3,29.45,SE,141,5.0,6.0,66,0.00,,,0.08,Wunderground v.1.15,2013-04-30 01:36:00,
2013-04-29 20:38:00,67.0,55.3,29.45,SE,131,5.0,6.0,66,0.00,,,0.08,Wunderground v.1.15,2013-04-30 01:38:00,
2013-04-29 20:40:00,67.1,55.4,29.45,SE,133,5.0,6.0,66,0.00,,,0.08,Wunderground v.1.15,2013-04-30 01:40:00,
2013-04-29 20:42:00,67.1,55.4,29.45,SE,129,5.0,6.0,66,0.00,,,0.08,Wunderground v.1.15,2013-04-30 01:42:00,
2013-04-29 20:46:00,66.9,55.6,29.45,SE,127,5.0,6.0,67,0.00,,,0.08,Wunderground v.1.15,2013-04-30 01:46:00,
2013-04-29 20:48:00,66.8,55.5,29.45,SE,131,5.0,6.0,67,0.00,,,0.08,Wunderground v.1.15,2013-04-30 01:48:00,
2013-04-29 20:50:00,66.8,55.5,29.45,SE,135,5.0,6.0,67,0.00,,,0.08,Wunderground v.1.15,2013-04-30 01:50:00,
2013-04-29 20:52:00,66.8,55.5,29.45,SE,135,5.0,6.0,67,0.00,,,0.08,Wunderground v.1.15,2013-04-30 01:52:00,
2013-04-29 20:56:00,66.8,55.5,29.45,SE,131,6.0,6.0,67,0.00,,,0.08,Wunderground v.1.15,2013-04-30 01:56:00,
2013-04-29 21:00:00,66.9,56.0,29.45,SE,135,6.0,6.0,68,0.00,,,0.08,Wunderground v.1.15,2013-04-30 02:00:00,
2013-04-29 21:02:00,66.9,56.0,29.45,SE,135,7.0,7.0,68,0.00,,,0.08,Wunderground v.1.15,2013-04-30 02:02:00,
2013-04-29 21:04:00,66.9,55.6,29.45,SE,133,7.0,7.0,67,0.00,,,0.08,Wunderground v.1.15,2013-04-30 02:04:00,
2013-04-29 21:06:00,66.9,55.6,29.45,SE,132,7.0,7.0,67,0.00,,,0.08,Wunderground v.1.15,2013-04-30 02:06:00,
2013-04-29 21:10:00,66.8,55.9,29.45,SE,139,7.0,7.0,68,0.00,,,0.08,Wunderground v.1.15,2013-04-30 02:10:00,
2013-04-29 21:12:00,66.8,55.9,29.45,SE,134,6.0,7.0,68,0.00,,,0.08,Wunderground v.1.15,2013-04-30 02:12:00,
2013-04-29 21:14:00,66.7,55.8,29.45,SE,143,6.0,7.0,68,0.00,,,0.08,Wunderground v.1.15,2013-04-30 02:14:00,
2013-04-29 21:18:00,66.3,55.8,29.45,SE,135,6.0,7.0,69,0.00,,,0.08,Wunderground v.1.15,2013-04-30 02:18:00,
2013-04-29 21:20:00,66.0,55.5,29.45,SE,139,6.0,6.0,69,0.00,,,0.08,Wunderground v.1.15,2013-04-30 02:20:00,
2013-04-29 21:22:00,65.8,55.7,29.45,SE,135,6.0,6.0,70,0.00,,,0.08,Wunderground v.1.15,2013-04-30 02:22:00,
2013-04-29 21:24:00,65.5,55.8,29.45,SSE,158,5.0,6.0,71,0.00,,,0.08,Wunderground v.1.15,2013-04-30 02:24:00,
2013-04-29 21:28:00,64.9,55.7,29.45,ESE,121,5.0,6.0,72,0.00,,,0.08,Wunderground v.1.15,2013-04-30 02:28:00,
2013-04-29 21:30:00,64.7,55.5,29.45,SE,135,5.0,6.0,72,0.00,,,0.08,Wunderground v.1.15,2013-04-30 02:30:00,
2013-04-29 21:34:00,64.5,55.7,29.45,SE,139,4.0,6.0,73,0.00,,,0.08,Wunderground v.1.15,2013-04-30 02:34:00,
2013-04-29 21:36:00,64.4,55.6,29.45,SE,143,5.0,6.0,73,0.00,,,0.08,Wunderground v.1.15,2013-04-30 02:36:00,
2013-04-29 21:38:00,64.2,55.7,29.45,ESE,122,5.0,8.0,74,0.00,,,0.08,Wunderground v.1.15,2013-04-30 02:38:00,
2013-04-29 21:40:00,64.0,55.5,29.45,SE,136,6.0,6.0,74,0.00,,,0.08,Wunderground v.1.15,2013-04-30 02:40:00,
2013-04-29 21:46:00,64.0,55.9,29.44,SE,128,7.0,8.0,75,0.00,,,0.08,Wunderground v.1.15,2013-04-30 02:46:00,
2013-04-29 21:48:00,64.1,56.0,29.45,SE,132,7.0,8.0,75,0.00,,,0.08,Wunderground v.1.15,2013-04-30 02:48:00,
2013-04-29 21:52:00,64.1,56.0,29.44,SE,136,7.0,8.0,75,0.00,,,0.08,Wunderground v.1.15,2013-04-30 02:52:00,
2013-04-29 21:54:00,64.2,56.1,29.44,SE,142,7.0,8.0,75,0.00,,,0.08,Wunderground v.1.15,2013-04-30 02:54:00,
2013-04-29 21:56:00,64.3,56.2,29.44,SE,136,7.0,8.0,75,0.00,,,0.08,Wunderground v.1.15,2013-04-30 02:56:00,
2013-04-29 22:00:00,64.5,56.0,29.44,ESE,120,7.0,7.0,74,0.00,,,0.08,Wunderground v.1.15,2013-04-30 03:00:00,
2013-04-29 22:02:00,64.5,56.0,29.44,SE,137,7.0,7.0,74,0.00,,,0.08,Wunderground v.1.15,2013-04-30 03:02:00,
2013-04-29 22:04:00,64.6,56.1,29.44,SE,134,7.0,8.0,74,0.00,,,0.08,Wunderground v.1.15,2013-04-30 03:04:00,
2013-04-29 22:06:00,64.7,56.2,29.44,SE,136,7.0,8.0,74,0.00,,,0.08,Wunderground v.1.15,2013-04-30 03:06:00,
2013-04-29 22:08:00,64.8,56.3,29.44,SE,135,8.0,8.0,74,0.00,,,0.08,Wunderground v.1.15,2013-04-30 03:08:00,
2013-04-29 22:12:00,64.9,56.4,29.44,SE,135,8.0,8.0,74,0.00,,,0.08,Wunderground v.1.15,2013-04-30 03:12:00,
2013-04-29 22:14:00,65.0,56.5,29.44,SE,135,8.0,8.0,74,0.00,,,0.08,Wunderground v.1.15,2013-04-30 03:14:00,
2013-04-29 22:16:00,64.9,56.4,29.44,SE,128,8.0,8.0,74,0.00,,,0.08,Wunderground v.1.15,2013-04-30 03:16:00,
2013-04-29 22:22:00,64.8,56.3,29.43,SE,136,8.0,9.0,74,0.00,,,0.08,Wunderground v.1.15,2013-04-30 03:22:00,
2013-04-29 22:26:00,64.5,56.4,29.43,SE,124,8.0,9.0,75,0.00,,,0.08,Wunderground v.1.15,2013-04-30 03:26:00,
2013-04-29 22:28:00,64.3,56.2,29.43,ESE,121,8.0,9.0,75,0.00,,,0.08,Wunderground v.1.15,2013-04-30 03:28:00,
2013-04-29 22:30:00,64.2,56.1,29.43,SE,136,8.0,8.0,75,0.00,,,0.08,Wunderground v.1.15,2013-04-30 03:30:00,
2013-04-29 22:32:00,64.2,56.1,29.43,SSE,148,8.0,8.0,75,0.00,,,0.08,Wunderground v.1.15,2013-04-30 03:32:00,
2013-04-29 22:34:00,64.3,56.2,29.43,SE,135,8.0,8.0,75,0.00,,,0.08,Wunderground v.1.15,2013-04-30 03:34:00,
2013-04-29 22:38:00,64.5,56.4,29.42,SE,125,8.0,10.0,75,0.00,,,0.08,Wunderground v.1.15,2013-04-30 03:38:00,
2013-04-29 22:40:00,64.5,56.4,29.42,SE,134,9.0,9.0,75,0.00,,,0.08,Wunderground v.1.15,2013-04-30 03:40:00,
2013-04-29 22:42:00,64.3,56.2,29.42,SE,135,9.0,9.0,75,0.00,,,0.08,Wunderground v.1.15,2013-04-30 03:42:00,
2013-04-29 22:46:00,64.1,56.4,29.42,SE,134,9.0,9.0,76,0.00,,,0.08,Wunderground v.1.15,2013-04-30 03:46:00,
2013-04-29 22:50:00,64.1,56.4,29.41,SE,125,9.0,10.0,76,0.00,,,0.08,Wunderground v.1.15,2013-04-30 03:50:00,
2013-04-29 22:52:00,64.2,56.5,29.41,SE,125,9.0,10.0,76,0.00,,,0.08,Wunderground v.1.15,2013-04-30 03:52:00,
2013-04-29 22:56:00,64.3,56.6,29.41,SE,124,9.0,10.0,76,0.00,,,0.08,Wunderground v.1.15,2013-04-30 03:56:00,
2013-04-29 22:58:00,64.2,56.5,29.41,SE,135,9.0,10.0,76,0.00,,,0.08,Wunderground v.1.15,2013-04-30 03:58:00,
2013-04-29 23:00:00,64.2,56.5,29.41,SE,134,9.0,9.0,76,0.00,,,0.08,Wunderground v.1.15,2013-04-30 04:00:00,
2013-04-29 23:02:00,64.0,56.3,29.40,SE,129,9.0,9.0,76,0.00,,,0.08,Wunderground v.1.15,2013-04-30 04:02:00,
2013-04-29 23:06:00,64.0,56.6,29.40,ESE,114,9.0,10.0,77,0.00,,,0.08,Wunderground v.1.15,2013-04-30 04:06:00,
2013-04-29 23:08:00,64.1,56.4,29.40,ESE,117,9.0,10.0,76,0.00,,,0.08,Wunderground v.1.15,2013-04-30 04:08:00,
2013-04-29 23:10:00,64.1,56.4,29.40,SE,129,9.0,10.0,76,0.00,,,0.08,Wunderground v.1.15,2013-04-30 04:10:00,
2013-04-29 23:14:00,64.0,56.3,29.40,SE,126,10.0,11.0,76,0.00,,,0.08,Wunderground v.1.15,2013-04-30 04:14:00,
2013-04-29 23:16:00,64.0,56.6,29.40,SE,135,10.0,11.0,77,0.00,,,0.08,Wunderground v.1.15,2013-04-30 04:16:00,
2013-04-29 23:22:00,64.0,56.6,29.40,ESE,120,10.0,10.0,77,0.00,,,0.08,Wunderground v.1.15,2013-04-30 04:22:00,
2013-04-29 23:26:00,64.0,56.6,29.40,SE,125,9.0,10.0,77,0.00,,,0.08,Wunderground v.1.15,2013-04-30 04:26:00,
2013-04-29 23:28:00,64.0,56.6,29.39,ESE,113,9.0,10.0,77,0.00,,,0.08,Wunderground v.1.15,2013-04-30 04:28:00,
2013-04-29 23:30:00,64.0,56.6,29.39,SE,124,9.0,9.0,77,0.00,,,0.08,Wunderground v.1.15,2013-04-30 04:30:00,
2013-04-29 23:32:00,64.0,56.6,29.39,SSE,150,9.0,9.0,77,0.00,,,0.08,Wunderground v.1.15,2013-04-30 04:32:00,
2013-04-29 23:34:00,63.9,56.5,29.39,SE,124,9.0,9.0,77,0.00,,,0.08,Wunderground v.1.15,2013-04-30 04:34:00,
2013-04-29 23:36:00,63.8,56.8,29.39,ESE,123,8.0,10.0,78,0.00,,,0.08,Wunderground v.1.15,2013-04-30 04:36:00,
2013-04-29 23:38:00,63.8,56.8,29.39,SE,135,8.0,10.0,78,0.00,,,0.08,Wunderground v.1.15,2013-04-30 04:38:00,
2013-04-29 23:42:00,63.9,56.9,29.39,SE,128,8.0,8.0,78,0.00,,,0.08,Wunderground v.1.15,2013-04-30 04:42:00,
2013-04-29 23:46:00,63.8,56.8,29.38,SE,134,8.0,9.0,78,0.00,,,0.08,Wunderground v.1.15,2013-04-30 04:46:00,
2013-04-29 23:50:00,63.9,56.9,29.38,SE,126,9.0,9.0,78,0.00,,,0.08,Wunderground v.1.15,2013-04-30 04:50:00,
2013-04-29 23:52:00,63.9,56.9,29.38,SE,145,9.0,9.0,78,0.00,,,0.08,Wunderground v.1.15,2013-04-30 04:52:00,
2013-04-29 23:56:00,63.8,57.2,29.38,SE,134,9.0,10.0,79,0.00,,,0.08,Wunderground v.1.15,2013-04-30 04:56:00,
2013-04-29 23:58:00,63.7,57.1,29.38,SE,143,9.0,10.0,79,0.00,,,0.08,Wunderground v.1.15,2013-04-30 04:58:00,